Aroma Park, IL

11:05 AM CDT on September 25, 2016 (GMT -0500)
Greater Kankakee

Weather History for KIKK - May, 2013

Change the Weather History Date:

Wednesday, May 15, 2013

  Actual Average Record
Temperature  
Mean Temperature 72 °F -  
Max Temperature 85 °F 71 °F 91 °F (1982)
Min Temperature 60 °F 48 °F 33 °F (2016)
Cooling Degree Days 8    
Growing Degree Days 22 (Base 50)    
Moisture  
Dew Point 53 °F    
Average Humidity 51    
Maximum Humidity 73    
Minimum Humidity 24    
Precipitation  
Precipitation 0.00 in - - ()
Sea Level Pressure  
Sea Level Pressure 29.80 in    
Wind  
Wind Speed 11 mph (WSW)    
Max Wind Speed 18 mph    
Max Gust Speed 25 mph    
Visibility 10 miles    
Events Rain , Thunderstorm    
Averages and records for this station are not official NWS values.
T = Trace of Precipitation, MM = Missing Value Source: NWS Daily Summary

Daily Weather History Graph

Daily Weather History Graph

Search for Another Location

Airport or City:

Trip Planner

Search our weather history database for the weather conditions in past years. The results will help you decide how hot, cold, wet, or windy it might be!

Date:

Astronomy

May. 15, 2013 Rise Set
Actual Time 5:33 AM CDT 8:02 PM CDT
Civil Twilight 5:01 AM CDT 8:34 PM CDT
Nautical Twilight 4:22 AM CDT 9:13 PM CDT
Astronomical Twilight 3:39 AM CDT 9:57 PM CDT
Moon 10:08 AM CDT (5/15) No Moon Set
Length of Visible Light 15h 32m
Length of Day
14h 29m
Waxing Crescent, 27% of the Moon is Illuminated
May 15
Waxing Crescent
May 17
First Quarter
May 24
Full
May 31
Last Quarter
Jun 8
New

Hourly Weather History & Observations

Time (CDT) Temp. Heat Index Dew Point Humidity Pressure Visibility Wind Dir Wind Speed Gust Speed Precip Events Conditions
12:15 AM 70.7 °F - 56.8 °F 61% 29.73 in 10.0 mi SSW 9.2 mph - N/A   Clear
12:35 AM 70.3 °F - 55.9 °F 60% 29.73 in 10.0 mi SW 9.2 mph - N/A   Clear
12:55 AM 69.1 °F - 55.4 °F 62% 29.74 in 10.0 mi SW 8.1 mph - N/A   Clear
1:15 AM 69.3 °F - 54.5 °F 59% 29.73 in 10.0 mi SW 9.2 mph - N/A   Clear
1:35 AM 69.3 °F - 54.0 °F 58% 29.73 in 10.0 mi SW 9.2 mph - N/A   Clear
1:55 AM 66.7 °F - 53.8 °F 63% 29.73 in 10.0 mi SSW 9.2 mph - N/A   Clear
2:15 AM 68.0 °F - 53.2 °F 59% 29.73 in 10.0 mi SW 11.5 mph - N/A   Clear
2:35 AM 68.7 °F - 52.9 °F 57% 29.73 in 10.0 mi SW 11.5 mph - N/A   Clear
2:55 AM 70.0 °F - 53.1 °F 55% 29.73 in 10.0 mi SW 12.7 mph - N/A   Clear
3:15 AM 70.3 °F - 53.6 °F 55% 29.73 in 10.0 mi SW 16.1 mph 20.7 mph N/A   Clear
3:35 AM 70.5 °F - 53.8 °F 55% 29.72 in 10.0 mi SW 15.0 mph 20.7 mph N/A   Clear
3:55 AM 70.0 °F - 54.1 °F 57% 29.72 in 10.0 mi SW 18.4 mph 21.9 mph N/A   Clear
4:15 AM 70.0 °F - 54.0 °F 57% 29.73 in 10.0 mi WSW 17.3 mph 23.0 mph N/A   Clear
4:35 AM 69.8 °F - 54.1 °F 57% 29.74 in 10.0 mi WSW 13.8 mph - N/A   Clear
4:55 AM 69.6 °F - 54.5 °F 59% 29.75 in 10.0 mi WSW 13.8 mph - N/A   Clear
5:15 AM 70.3 °F - 54.5 °F 57% 29.75 in 10.0 mi WSW 13.8 mph 21.9 mph N/A   Clear
5:35 AM 70.7 °F - 54.9 °F 57% 29.76 in 10.0 mi WSW 11.5 mph - N/A   Clear
5:55 AM 70.9 °F - 55.4 °F 58% 29.77 in 10.0 mi WSW 13.8 mph - N/A   Clear
6:15 AM 70.7 °F - 55.6 °F 59% 29.77 in 10.0 mi WSW 12.7 mph 17.3 mph N/A   Clear
6:35 AM 71.2 °F - 55.6 °F 58% 29.78 in 10.0 mi West 13.8 mph 19.6 mph N/A   Clear
6:55 AM 71.8 °F - 55.6 °F 57% 29.79 in 10.0 mi West 16.1 mph 20.7 mph N/A   Clear
7:15 AM 73.0 °F - 56.5 °F 56% 29.80 in 10.0 mi West 17.3 mph 23.0 mph N/A   Clear
7:35 AM 72.9 °F - 56.3 °F 56% 29.80 in 10.0 mi West 17.3 mph 20.7 mph N/A   Clear
7:55 AM 73.4 °F - 57.2 °F 57% 29.81 in 10.0 mi West 11.5 mph 21.9 mph N/A   Clear
8:15 AM 72.5 °F - 57.2 °F 59% 29.81 in 10.0 mi West 15.0 mph 20.7 mph N/A   Clear
8:35 AM 73.6 °F - 57.9 °F 58% 29.82 in 10.0 mi West 13.8 mph 25.3 mph N/A   Clear
8:55 AM 74.1 °F - 57.0 °F 55% 29.83 in 10.0 mi West 18.4 mph - N/A   Clear
9:15 AM 70.7 °F - 58.6 °F 66% 29.84 in 10.0 mi West 11.5 mph 20.7 mph N/A Rain Light Rain
9:35 AM 69.8 °F - 59.0 °F 68% 29.83 in 10.0 mi West 6.9 mph - N/A Rain , Thunderstorm Light Thunderstorms and Rain
9:55 AM 69.6 °F - 59.0 °F 69% 29.84 in 10.0 mi WSW 12.7 mph - N/A   Scattered Clouds
10:15 AM 70.3 °F - 59.7 °F 69% 29.83 in 10.0 mi WSW 10.4 mph - N/A   Clear
10:35 AM 72.0 °F - 60.4 °F 67% 29.83 in 10.0 mi WSW 8.1 mph - N/A   Clear
10:55 AM 74.3 °F - 60.1 °F 61% 29.84 in 10.0 mi SW 15.0 mph 19.6 mph N/A   Clear
11:15 AM 75.6 °F - 59.4 °F 57% 29.86 in 10.0 mi WSW 18.4 mph - N/A   Clear
11:35 AM 75.2 °F - 57.0 °F 53% 29.86 in 10.0 mi WSW 16.1 mph 23.0 mph N/A   Clear
11:55 AM 77.2 °F - 56.1 °F 48% 29.84 in 10.0 mi West 11.5 mph 16.1 mph N/A   Clear
12:15 PM 80.4 °F 80.6 °F 56.8 °F 44% 29.84 in 10.0 mi WSW 9.2 mph - N/A   Clear
12:35 PM 80.4 °F 80.3 °F 54.7 °F 41% 29.84 in 10.0 mi West 10.4 mph 17.3 mph N/A   Clear
12:55 PM 81.0 °F 80.7 °F 55.0 °F 41% 29.84 in 10.0 mi West 10.4 mph 16.1 mph N/A   Clear
1:15 PM 82.2 °F 81.6 °F 55.8 °F 40% 29.83 in 10.0 mi West 8.1 mph - N/A   Clear
1:35 PM 84.0 °F - 52.7 °F 34% 29.82 in 10.0 mi WSW 11.5 mph - N/A   Clear
1:55 PM 84.2 °F - 46.4 °F 27% 29.82 in 10.0 mi West 11.5 mph 18.4 mph N/A   Clear
2:15 PM 82.8 °F - 44.8 °F 26% 29.83 in 10.0 mi West 17.3 mph 20.7 mph N/A   Clear
2:35 PM 82.6 °F - 42.6 °F 24% 29.81 in 10.0 mi NW 8.1 mph 19.6 mph N/A   Clear
2:55 PM 83.3 °F - 46.9 °F 28% 29.81 in 10.0 mi West 8.1 mph - N/A   Clear
3:15 PM 84.4 °F - 48.6 °F 29% 29.82 in 10.0 mi West 12.7 mph - N/A   Clear
3:35 PM 85.1 °F - 48.7 °F 28% 29.81 in 10.0 mi WSW 11.5 mph 18.4 mph N/A   Clear
3:55 PM 80.4 °F 80.1 °F 53.2 °F 39% 29.80 in 10.0 mi SW 17.3 mph 21.9 mph N/A   Clear
4:15 PM 81.5 °F - 50.5 °F 34% 29.81 in 10.0 mi WSW 18.4 mph - N/A   Clear
4:35 PM 82.4 °F - 50.2 °F 33% 29.80 in 10.0 mi WSW 13.8 mph 18.4 mph N/A   Clear
4:55 PM 82.8 °F - 49.1 °F 31% 29.80 in 10.0 mi WSW 13.8 mph 17.3 mph N/A   Clear
5:15 PM 82.0 °F - 49.1 °F 32% 29.80 in 10.0 mi WSW 10.4 mph - N/A   Clear
5:35 PM 83.1 °F - 50.2 °F 32% 29.80 in 10.0 mi WSW 11.5 mph - N/A   Clear
5:55 PM 82.4 °F - 48.7 °F 31% 29.80 in 10.0 mi West 11.5 mph - N/A   Clear
6:15 PM 81.5 °F - 48.7 °F 32% 29.79 in 10.0 mi WSW 5.8 mph - N/A   Clear
6:35 PM 81.3 °F - 49.1 °F 32% 29.79 in 10.0 mi WSW 8.1 mph - N/A   Clear
6:55 PM 80.4 °F - 48.4 °F 32% 29.80 in 10.0 mi WSW 8.1 mph - N/A   Clear
7:15 PM 79.7 °F - 49.1 °F 34% 29.81 in 10.0 mi NNW 5.8 mph - N/A   Clear
7:35 PM 76.1 °F - 51.1 °F 41% 29.82 in 10.0 mi North 4.6 mph - N/A   Clear
7:55 PM 73.9 °F - 50.9 °F 44% 29.82 in 10.0 mi NE 4.6 mph - N/A   Clear
8:15 PM 71.1 °F - 51.4 °F 50% 29.81 in 10.0 mi East 4.6 mph - N/A   Clear
8:35 PM 69.3 °F - 51.4 °F 53% 29.81 in 10.0 mi Calm Calm - N/A   Clear
8:55 PM 67.8 °F - 52.2 °F 57% 29.82 in 10.0 mi Calm Calm - N/A   Clear
9:15 PM 67.3 °F - 52.0 °F 58% 29.83 in 7.0 mi North 3.5 mph - N/A   Clear
9:35 PM 67.1 °F - 51.8 °F 58% 29.83 in 10.0 mi Calm Calm - N/A   Clear
9:55 PM 64.9 °F - 53.2 °F 66% 29.82 in 10.0 mi Calm Calm - N/A   Clear
10:15 PM 64.8 °F - 52.2 °F 64% 29.82 in 10.0 mi Calm Calm - N/A   Clear
10:35 PM 62.6 °F - 53.2 °F 71% 29.82 in 10.0 mi Calm Calm - N/A   Clear
10:55 PM 61.3 °F - 52.7 °F 73% 29.82 in 10.0 mi NNE 6.9 mph - N/A   Clear
11:15 PM 63.3 °F - 51.4 °F 65% 29.83 in 10.0 mi NNE 4.6 mph - N/A   Clear
11:35 PM 60.8 °F - 51.8 °F 72% 29.84 in 10.0 mi Calm Calm - N/A   Clear
11:55 PM 62.2 °F - 50.4 °F 65% 29.84 in 10.0 mi NE 3.5 mph - N/A Thunderstorm Clear